Time_in_sec,Mx,My,Mz
1312468614.41121697,-0.46886379,0.53971821,-0.73256695
1312468614.47211409,-0.46831462,0.53919977,-0.73266625
1312468614.52716613,-0.46984568,0.53752804,-0.73085082
1312468614.57217860,-0.46954620,0.53857082,-0.73259789
1312468614.62310219,-0.46953994,0.53859448,-0.73475969
1312468614.66018486,-0.46829918,0.53704244,-0.73494619
1312468614.72320247,-0.46867183,0.53919351,-0.73174107
1312468614.77119136,-0.47023380,0.53703988,-0.73276138
1312468614.82054996,-0.46840051,0.53698725,-0.72981697
1312468614.87107658,-0.46919513,0.53934735,-0.73352927
1312468614.91116667,-0.46888337,0.53884947,-0.73526400
1312468614.97208166,-0.46897426,0.53932989,-0.73216504
1312468615.02321887,-0.46770778,0.53661925,-0.73207104
1312468615.07220769,-0.47031331,0.53690207,-0.73181909
1312468615.12312651,-0.46703345,0.54084468,-0.73179352
1312468615.17212129,-0.46757537,0.54023290,-0.73398238
1312468615.22311115,-0.46849114,0.53882414,-0.73334926
1312468615.27212453,-0.46985191,0.53624737,-0.73111176
1312468615.32357311,-0.46918905,0.53755152,-0.73365045
1312468615.37202716,-0.46991476,0.53666884,-0.73436153
1312468615.41222978,-0.46927774,0.53833765,-0.73501277
1312468615.47110081,-0.46966994,0.53962004,-0.73450476
1312468615.52313113,-0.46899492,0.53882110,-0.73256779
1312468615.57212424,-0.46900111,0.53856593,-0.73270136
1312468615.62409091,-0.46996111,0.53834420,-0.73491740
1312468615.66411567,-0.46979392,0.53782427,-0.73449838
1312468615.72336364,-0.46923020,0.53961045,-0.73407376
1312468615.77210426,-0.46871930,0.53894627,-0.73255271
1312468615.82480121,-0.46826714,0.53819001,-0.73427737
1312468615.87115240,-0.47006443,0.53705722,-0.73450828
1312468615.91185093,-0.46798825,0.54100651,-0.73387706
1312468615.97110057,-0.46890703,0.53975135,-0.73554242
1312468616.02413058,-0.46905896,0.53880852,-0.73135531
1312468616.07113647,-0.46875030,0.53767031,-0.73322052
1312468616.12321758,-0.47042978,0.53784657,-0.73588669
1312468616.17213631,-0.47030488,0.53746295,-0.73614681
1312468616.22394872,-0.47019967,0.53667367,-0.73451322
1312468616.27247429,-0.47003245,0.53717929,-0.73396689
1312468616.32431078,-0.46894744,0.53781140,-0.73417890
1312468616.37213087,-0.46816382,0.53947699,-0.73468643
1312468616.41121244,-0.46871918,0.53848326,-0.73714340
1312468616.47222424,-0.46985474,0.53924602,-0.73532337
1312468616.52409935,-0.46764168,0.53637505,-0.73328149
1312468616.57119536,-0.46918175,0.53870386,-0.73338848
1312468616.62320471,-0.46775714,0.53844821,-0.73492533
1312468616.66422677,-0.46787587,0.53806150,-0.73465902
1312468616.72316837,-0.46882552,0.53860694,-0.73661005
1312468616.77120805,-0.46985278,0.53693825,-0.73557609
1312468616.82324696,-0.46880296,0.53703946,-0.73416466
1312468616.87121010,-0.46950993,0.53874183,-0.73651564
1312468616.91120577,-0.46723890,0.53870481,-0.73543763
1312468616.97119808,-0.46741018,0.53973824,-0.73586076
1312468617.02169585,-0.46926951,0.53731060,-0.73500454
1312468617.07225204,-0.47096768,0.53695279,-0.73577607
1312468617.12308478,-0.46864802,0.53782868,-0.73605335
1312468617.17217326,-0.46988365,0.53873879,-0.73586172
1312468617.22022486,-0.46894011,0.53873217,-0.73621225
1312468617.27121639,-0.46964636,0.53666717,-0.73448110
1312468617.32413602,-0.46834973,0.53718030,-0.73576087
1312468617.37222862,-0.46877697,0.53975129,-0.73566997
1312468617.41221523,-0.46713153,0.53845274,-0.73597002
1312468617.47216535,-0.46830097,0.54116970,-0.73673403
1312468617.52309179,-0.46892047,0.53936934,-0.73581058
1312468617.57121587,-0.46913952,0.53628504,-0.73525947
1312468617.62327218,-0.46705508,0.53897572,-0.73691535
1312468617.66412568,-0.46991149,0.53787166,-0.73869437
1312468617.72410011,-0.47071147,0.53928572,-0.73807591
1312468617.77112365,-0.46926019,0.53820610,-0.73474050
1312468617.82327318,-0.46922290,0.53950572,-0.73623455
1312468617.87111282,-0.46764353,0.53947681,-0.73519671
1312468617.91217303,-0.46803567,0.53927070,-0.73940676
1312468617.97112036,-0.46907520,0.54016811,-0.73825783
1312468618.02311921,-0.46908781,0.53681278,-0.73661172
1312468618.07108426,-0.46977937,0.53887188,-0.73639715
1312468618.12410116,-0.46819058,0.53950697,-0.73739070
1312468618.17108226,-0.46915483,0.53797930,-0.73757029
1312468618.22309661,-0.46863657,0.53823590,-0.73808259
1312468618.27113008,-0.47103047,0.53839976,-0.73889846
1312468618.32482791,-0.46899799,0.53669226,-0.73741633
1312468618.37118673,-0.46889159,0.53759408,-0.73782235
1312468618.41212964,-0.46805218,0.53927386,-0.73967797
1312468618.47130060,-0.46897301,0.53953248,-0.73892266
1312468618.52312875,-0.46919399,0.53875595,-0.73811889
1312468618.57154918,-0.47154149,0.53826994,-0.73825157
1312468618.62468839,-0.47125760,0.53713650,-0.74052358
1312468618.67221260,-0.46819061,0.53722447,-0.73994082
1312468618.72335434,-0.46947157,0.53968155,-0.74030399
1312468618.77122641,-0.47071674,0.53685117,-0.73846316
1312468618.82422686,-0.46980515,0.53774798,-0.73922777
1312468618.87115073,-0.47048023,0.53752142,-0.74129212
1312468618.91214967,-0.46972254,0.53750068,-0.74016696
1312468618.97110152,-0.46835047,0.53992218,-0.73997045
1312468619.02205110,-0.46891323,0.53823918,-0.73809868
1312468619.07210946,-0.47129270,0.53763109,-0.73877275
1312468619.12312865,-0.46767846,0.53927690,-0.74033195
1312468619.17123508,-0.47068566,0.53789562,-0.74009073
1312468619.22314501,-0.46945193,0.53906173,-0.74232501
1312468619.27225018,-0.47108534,0.53494918,-0.74022681
1312468619.32452106,-0.47018707,0.53751504,-0.74100477
1312468619.37192035,-0.47049463,0.53829330,-0.74143392
1312468619.41121507,-0.46952119,0.53764004,-0.74137247
1312468619.47124434,-0.46988034,0.53868461,-0.74261731
1312468619.52311254,-0.46921968,0.53968304,-0.74069476
1312468619.57116675,-0.47042659,0.53699839,-0.74047428
1312468619.62311602,-0.46971413,0.53931856,-0.74207193
1312468619.66316915,-0.47144124,0.53742808,-0.74350917
1312468619.72311211,-0.46842575,0.54109031,-0.74106461
1312468619.77188039,-0.46923515,0.53955781,-0.74096495
1312468619.82318830,-0.47042346,0.53763872,-0.74034381
1312468619.87125230,-0.46904320,0.53777617,-0.74256182
1312468619.91222358,-0.46923622,0.53740370,-0.74351609
1312468619.97218347,-0.46740690,0.53968406,-0.74261636
1312468620.02024198,-0.46907523,0.53788561,-0.74080789
1312468620.07120991,-0.46898752,0.53699636,-0.74174196
1312468620.12024117,-0.46852696,0.53931504,-0.74294883
1312468620.17119908,-0.46949428,0.53817254,-0.74313152
1312468620.22157669,-0.46983179,0.53857195,-0.74409997
1312468620.27124834,-0.47168082,0.53588593,-0.74310607
1312468620.32010412,-0.47086316,0.53741682,-0.74307019
1312468620.37220216,-0.47089824,0.53767991,-0.74361467
1312468620.41212726,-0.46918136,0.53959727,-0.74461043
1312468620.47213840,-0.47006929,0.53779858,-0.74356741
1312468620.52019644,-0.46889344,0.53943878,-0.74216032
1312468620.57250190,-0.47079501,0.53691590,-0.74427855
1312468620.62219381,-0.46941987,0.53895229,-0.74407893
1312468620.66325784,-0.46743274,0.53879172,-0.74315161
1312468620.72309232,-0.47022709,0.53898251,-0.74601775
1312468620.77212048,-0.47027051,0.53845322,-0.74452990
1312468620.82083321,-0.46930015,0.53818506,-0.74447155
1312468620.87213874,-0.46990296,0.53922653,-0.74519002
1312468620.91211152,-0.46921551,0.53768098,-0.74540871
1312468620.97112393,-0.46779916,0.53868395,-0.74465841
1312468621.02373147,-0.46967492,0.53831041,-0.74381864
1312468621.07112956,-0.47059172,0.53600454,-0.74331397
1312468621.12319303,-0.46844116,0.53947657,-0.74605292
1312468621.17111158,-0.47135547,0.53758955,-0.74661326
1312468621.22310853,-0.47031075,0.53833270,-0.74520695
1312468621.27120805,-0.46914440,0.53600091,-0.74444604
1312468621.32451749,-0.46904108,0.53728789,-0.74485511
1312468621.37112689,-0.46847031,0.53612435,-0.74467808
1312468621.41120124,-0.46976149,0.53986526,-0.74505150
1312468621.47163343,-0.46932578,0.54013771,-0.74691999
1312468621.52423120,-0.46847424,0.53971440,-0.74430001
1312468621.57112312,-0.46764848,0.53816724,-0.74451065
1312468621.62415290,-0.46802306,0.54011202,-0.74589831
1312468621.66325879,-0.46956128,0.53808206,-0.74651277
1312468621.72307229,-0.47030759,0.53999859,-0.74494910
1312468621.77108145,-0.46924540,0.53832763,-0.74582070
1312468621.82451081,-0.47109121,0.53707594,-0.74686426
1312468621.87110615,-0.46935269,0.53834820,-0.74758369
1312468621.91213226,-0.46872705,0.53937829,-0.74850100
1312468621.97113466,-0.46850413,0.53910404,-0.74713475
1312468622.02309370,-0.46970370,0.53985423,-0.74410224
1312468622.07120037,-0.46961501,0.53781110,-0.74516261
1312468622.12311292,-0.46930721,0.53862077,-0.74906945
1312468622.17120743,-0.47058019,0.53720576,-0.74751121
1312468622.22226644,-0.46773717,0.53769630,-0.74829566
1312468622.27111149,-0.46972349,0.53614050,-0.74488604
1312468622.32405996,-0.47003001,0.53781593,-0.74518675
1312468622.37123227,-0.46973878,0.53886032,-0.74706948
1312468622.41215444,-0.46959525,0.53798527,-0.74935162
1312468622.47129273,-0.46775055,0.53959686,-0.74601370
1312468622.52351809,-0.46883765,0.53819597,-0.74593115
1312468622.57119250,-0.47042432,0.53707260,-0.74723089
1312468622.62308383,-0.46863317,0.53897572,-0.74700612
1312468622.66414738,-0.46890885,0.53782505,-0.74714857
1312468622.72312760,-0.46827796,0.54026419,-0.74780595
1312468622.77121449,-0.46838242,0.53831160,-0.74522996
1312468622.82307696,-0.47082070,0.53784305,-0.74685436
1312468622.87113643,-0.46947154,0.53591055,-0.74757218
1312468622.91268349,-0.46830806,0.53806585,-0.74630475
1312468622.97120237,-0.46913794,0.54012662,-0.74609828
1312468623.02185345,-0.46960041,0.53988415,-0.74693406
1312468623.07120824,-0.46877575,0.53767139,-0.74497771
1312468623.12025905,-0.46781141,0.53999305,-0.74696612
1312468623.17121243,-0.46945482,0.53875238,-0.74921411
1312468623.22332716,-0.46891189,0.53923571,-0.74702430
1312468623.27112508,-0.46949223,0.53665876,-0.74555218
1312468623.32339764,-0.46896875,0.53832442,-0.74580461
1312468623.37112856,-0.46949929,0.53835142,-0.74772733
1312468623.42014766,-0.46885711,0.53937829,-0.74837339
1312468623.47111654,-0.47008675,0.53769863,-0.74613506
1312468623.52325869,-0.47012189,0.53693622,-0.74680692
1312468623.57113504,-0.46994233,0.53590119,-0.74624819
1312468623.62311196,-0.46882933,0.53796291,-0.74809086
1312468623.66006899,-0.47093323,0.53771150,-0.74645454
1312468623.72013712,-0.46948791,0.53899020,-0.74746126
1312468623.77210808,-0.47073820,0.53680170,-0.74562562
1312468623.82444191,-0.47065037,0.53796345,-0.74630487
1312468623.87112546,-0.46918449,0.53769994,-0.74716365
1312468623.91287732,-0.47097957,0.53812987,-0.74943310
1312468623.97113419,-0.46865368,0.54154342,-0.74702674
1312468624.02310061,-0.47005579,0.53794909,-0.74559462
1312468624.07211328,-0.46849295,0.53689784,-0.74495548
1312468624.12346005,-0.46969339,0.53833884,-0.74638730
1312468624.16422915,-0.46970057,0.53923756,-0.74639446
1312468624.22324634,-0.47061715,0.54080212,-0.74767566
1312468624.27113080,-0.47008675,0.53769863,-0.74613506
1312468624.32336307,-0.46935076,0.53729749,-0.74541366
1312468624.37108207,-0.47001976,0.53527510,-0.74759918
1312468624.41226244,-0.46987414,0.53642577,-0.74732918
1312468624.47112417,-0.46902335,0.54000133,-0.74649602
1312468624.52350450,-0.46964276,0.54025197,-0.74531782
1312468624.57111645,-0.47019926,0.53859264,-0.74560785
1312468624.62394142,-0.46830085,0.53819269,-0.74617016
1312468624.66328168,-0.46918228,0.53926265,-0.74920219
1312468624.72410750,-0.47022489,0.54054523,-0.74805629
1312468624.77221417,-0.46777445,0.53765368,-0.74437892
1312468624.82577324,-0.46815625,0.53947175,-0.74590123
1312468624.87223148,-0.47013003,0.53898883,-0.74668777
1312468624.91166592,-0.46919361,0.53964937,-0.74934089
1312468624.97221947,-0.46811384,0.54012942,-0.74739009
1312468625.02322388,-0.46940753,0.53718013,-0.74636191
1312468625.07119870,-0.46938163,0.53909802,-0.74569929
1312468625.12410688,-0.46912867,0.53999662,-0.74596161
1312468625.16422296,-0.46879211,0.53949404,-0.74728954
1312468625.22308517,-0.47047678,0.54054374,-0.74766552
1312468625.27113223,-0.46932903,0.53870338,-0.74488252
1312468625.32320189,-0.46909678,0.53806770,-0.74567497
1312468625.37111902,-0.46957773,0.53911072,-0.74665666
1312468625.41119933,-0.46810037,0.54027992,-0.74941725
1312468625.47110558,-0.46939695,0.54079229,-0.74801010
1312468625.52310443,-0.46920207,0.53806299,-0.74514055
1312468625.57210326,-0.46959636,0.53834516,-0.74705732
1312468625.62320423,-0.46838635,0.54064465,-0.74727464
1312468625.66412830,-0.46870649,0.53909308,-0.74593031
1312468625.71613407,-0.46859890,0.54168600,-0.74837583
1312468625.77158332,-0.46983054,0.54128861,-0.74601215
1312468625.82039523,-0.46942085,0.54010618,-0.74395257
1312468625.87120366,-0.46885821,0.53973818,-0.74607909
1312468625.91121078,-0.46915427,0.54194927,-0.74841011
1312468625.97120118,-0.46997416,0.53885561,-0.74640751
1312468626.02028251,-0.47030246,0.53809965,-0.74736673
1312468626.07165289,-0.46954384,0.53589952,-0.74649531
1312468626.12308669,-0.46987194,0.53924549,-0.74694496
1312468626.17178059,-0.46942094,0.53679812,-0.74663007
1312468626.22511148,-0.46908128,0.53693593,-0.74782747
1312468626.27121997,-0.47120586,0.53617573,-0.74659389
1312468626.32021785,-0.46871912,0.53573769,-0.74428421
1312468626.37222171,-0.47117266,0.53798890,-0.74809200
1312468626.41211963,-0.46890676,0.53859383,-0.74701911
1312468626.47121763,-0.46880761,0.53936881,-0.74755973
1312468626.52321959,-0.46954677,0.53936112,-0.74611622
1312468626.57116175,-0.46933421,0.53831977,-0.74501503
1312468626.62012076,-0.46905020,0.53923732,-0.74703234
1312468626.66347814,-0.46982133,0.53887612,-0.74842560
1312468626.72015643,-0.46931037,0.53923744,-0.74677718
1312468626.77214336,-0.47058126,0.53756565,-0.74521691
1312468626.82310462,-0.47037685,0.53731990,-0.74641925
1312468626.87115073,-0.46836799,0.53753972,-0.74508816
1312468626.91116238,-0.46735114,0.53741574,-0.74651456
1312468626.97223568,-0.46984917,0.54052299,-0.74641281
1312468627.02710843,-0.47041193,0.53884000,-0.74454105
1312468627.07222605,-0.46876550,0.53638750,-0.74496740
1312468627.12309194,-0.46949515,0.53886336,-0.74759585
1312468627.17221141,-0.46910605,0.53819764,-0.74581158
1312468627.22310948,-0.47036448,0.53680474,-0.74627954
1312468627.27204180,-0.46986809,0.53486145,-0.74515504
1312468627.32309484,-0.46947464,0.53755271,-0.74515253
1312468627.37195539,-0.46845880,0.53755713,-0.74657995
1312468627.41225457,-0.47006091,0.53733397,-0.74802250
1312468627.47221255,-0.46966866,0.53833413,-0.74598044
1312468627.52321434,-0.46835452,0.53894722,-0.74469262
1312468627.57156920,-0.46938282,0.53614992,-0.74608248
1312468627.62421298,-0.46957347,0.54041666,-0.74869311
1312468627.66311312,-0.46969244,0.53718495,-0.74651361
1312468627.72307134,-0.46994320,0.53910607,-0.74586707
1312468627.77113175,-0.47075778,0.53719002,-0.74589992
1312468627.82203722,-0.46951565,0.53857374,-0.74372900
1312468627.87120724,-0.46901485,0.53770471,-0.74693704
1312468627.91159606,-0.47131017,0.53887534,-0.74599797
1312468627.97114062,-0.46760324,0.54037571,-0.74606431
1312468628.02309442,-0.46999270,0.53807759,-0.74483418
1312468628.07156730,-0.47170457,0.53450531,-0.74593461
1312468628.12409949,-0.46981734,0.53756857,-0.74625355
1312468628.17162228,-0.46795723,0.53599739,-0.74532294
1312468628.22169495,-0.46839994,0.53718615,-0.74792492
1312468628.27221727,-0.47078061,0.53614402,-0.74413675
1312468628.32310843,-0.46962646,0.53614682,-0.74555612
1312468628.37119770,-0.47056681,0.53656226,-0.74737042
1312468628.41111803,-0.46870869,0.53627336,-0.74631453
1312468628.47202682,-0.46817377,0.53960329,-0.74617344
1312468628.52413106,-0.46982142,0.53808212,-0.74625766
1312468628.57221723,-0.46991143,0.53638315,-0.74341244
1312468628.62310004,-0.46851000,0.53655356,-0.74784505
1312468628.66420269,-0.46947017,0.53861481,-0.74751097
1312468628.72309422,-0.47038499,0.53912878,-0.74662191
1312468628.77215099,-0.46891066,0.53727520,-0.74300826
1312468628.82311726,-0.46945679,0.53820270,-0.74507427
1312468628.87229466,-0.46964782,0.53757334,-0.74602669
1312468628.91214514,-0.46826005,0.53806919,-0.74581468
1312468628.97120047,-0.46858317,0.53974819,-0.74638677
1312468629.02032113,-0.46954557,0.53922057,-0.74414104
1312468629.07122636,-0.47030658,0.53860086,-0.74539697
1312468629.12413812,-0.46939993,0.53911424,-0.74629426
1312468629.17213464,-0.46768180,0.53908372,-0.74524814
1312468629.22325754,-0.46775508,0.53896952,-0.74646795
1312468629.27110529,-0.46905729,0.53602105,-0.74557525
1312468629.32306981,-0.46986881,0.53782231,-0.74509537
1312468629.37107968,-0.46899527,0.53731626,-0.74666262
1312468629.41211653,-0.46995133,0.53886390,-0.74632442
1312468629.47220826,-0.46943504,0.53937739,-0.74683893
1312468629.52307177,-0.46762604,0.53932947,-0.74430072
1312468629.57107306,-0.46864730,0.53768402,-0.74542880
1312468629.62320614,-0.46978825,0.53783178,-0.74603683
1312468629.66309953,-0.46833241,0.53703243,-0.74486500
1312468629.72311521,-0.46878663,0.53883982,-0.74531049
1312468629.77138662,-0.47063699,0.53810149,-0.74635845
1312468629.82167244,-0.46819088,0.53869700,-0.74459904
1312468629.87217760,-0.46944654,0.53691852,-0.74506402
1312468629.91220021,-0.46925023,0.53872579,-0.74614745
1312468629.97223401,-0.46979237,0.53834546,-0.74604094
1312468630.02350283,-0.46964881,0.53872746,-0.74590033
1312468630.07131481,-0.46951470,0.53616226,-0.74627864
1312468630.12414193,-0.46761668,0.53999364,-0.74633247
1312468630.17210579,-0.46811965,0.53781074,-0.74580461
1312468630.22312236,-0.46972007,0.53835648,-0.74711806
1312468630.27108645,-0.46854308,0.53576565,-0.74621922
1312468630.32408428,-0.47036141,0.53617519,-0.74659824
1312468630.37107658,-0.46988639,0.53692818,-0.74549508
1312468630.41221404,-0.46922028,0.53910470,-0.74560797
1312468630.47200084,-0.46859762,0.53949451,-0.74665600
1312468630.52318001,-0.46917590,0.53871155,-0.74492669
1312468630.57120132,-0.47112757,0.53642911,-0.74556339
1312468630.62197471,-0.46818367,0.53756654,-0.74688768
1312468630.66410208,-0.46878147,0.53796619,-0.74760121
1312468630.72411799,-0.46926472,0.53847212,-0.74641669
1312468630.77119970,-0.46964985,0.53885591,-0.74590135
1312468630.82409859,-0.46853885,0.53832924,-0.74583286
1312468630.87120938,-0.46908820,0.53782207,-0.74586093
1312468630.91136551,-0.46857285,0.53948975,-0.74624908
1312468630.97175097,-0.46929148,0.53975946,-0.74669832
1312468631.02310228,-0.46980780,0.53924596,-0.74618381
1312468631.07211971,-0.46815377,0.53715128,-0.74417973
1312468631.12309408,-0.46819705,0.53821021,-0.74702847
1312468631.17210937,-0.47068864,0.53734207,-0.74730182
1312468631.22413230,-0.46876693,0.53901404,-0.74950045
1312468631.27221203,-0.47093335,0.53746742,-0.74677634
1312468631.32311225,-0.46908617,0.53653949,-0.74598628
1312468631.37119126,-0.46805868,0.53820860,-0.74702042
1312468631.41120601,-0.46856257,0.53797400,-0.74853462
1312468631.47208667,-0.46900964,0.53911412,-0.74667704
1312468631.52311635,-0.46881345,0.53910142,-0.74571949
1312468631.57108140,-0.46954876,0.53629702,-0.74682224
1312468631.62359047,-0.46865967,0.53819931,-0.74556857
1312468631.66321135,-0.46801534,0.53794384,-0.74634016
1312468631.72318387,-0.46792233,0.53948957,-0.74688703
1312468631.77209282,-0.47028902,0.53846925,-0.74512464
1312468631.82035851,-0.46869683,0.53769356,-0.74624270
1312468631.87113237,-0.46803293,0.53704965,-0.74673986
1312468631.91211748,-0.46852851,0.53783929,-0.74799103
1312468631.97108555,-0.46887237,0.53844672,-0.74450159
1312468632.02423573,-0.46857393,0.53859240,-0.74637753
1312468632.07127738,-0.46880320,0.53781724,-0.74570918
1312468632.12346554,-0.46783459,0.53860009,-0.74782133
1312468632.17137766,-0.46973559,0.53720546,-0.74751574
1312468632.22386312,-0.46954346,0.53850061,-0.74873072
1312468632.27111149,-0.46904284,0.53627473,-0.74530602
1312468632.32352161,-0.46963337,0.53782701,-0.74575746
1312468632.37173057,-0.46911097,0.53654426,-0.74639320
1312468632.41220570,-0.46816710,0.53858912,-0.74648899
1312468632.47108436,-0.46942675,0.53937584,-0.74670327
1312468632.52019310,-0.46911708,0.53834051,-0.74627197
1312468632.57109666,-0.46935880,0.53602910,-0.74599826
1312468632.62007904,-0.46886927,0.53782994,-0.74679434
1312468632.66348028,-0.46860901,0.53885561,-0.74692214
1312468632.72308350,-0.46829098,0.53884441,-0.74622780
1312468632.77149320,-0.46937117,0.53654432,-0.74613804
1312468632.82347918,-0.47046256,0.53668255,-0.74593216
1312468632.87110662,-0.46718308,0.53870302,-0.74616241
1312468632.92324376,-0.46927193,0.53834528,-0.74655133
1312468632.97122717,-0.46827036,0.53832757,-0.74595243
1312468633.02708125,-0.46908101,0.53715473,-0.74355787
1312468633.07509947,-0.46779963,0.53651696,-0.74523562
1312468633.12351441,-0.46873915,0.53782988,-0.74692196
1312468633.17107391,-0.46815997,0.53666449,-0.74660921
